Location: Unspecified
(0.0000°N, 0.0000°E)
Time: 21:41:22
(UTC+00:00)

Vanguard 2 Rocket - All Passes

Search period start: 22 October 2014 00:00
Search period end: 01 November 2014 00:00
Orbit: 554 x 3335 km, 32.9° (Epoch: 22 October)

Date Brightness Start Highest point End Pass type
(mag) Time Alt. Az. Time Alt. Az. Time Alt. Az.
22 Oct - 08:22:33 10° NNW 08:34:23 39° NE 08:51:31 10° E daylight
22 Oct - 10:35:49 10° NW 10:52:18 88° SW 11:13:03 10° SE daylight
22 Oct - 12:54:16 10° W 13:12:07 42° SSW 13:29:15 10° SE daylight
22 Oct - 15:22:20 10° WSW 15:33:33 18° SSW 15:42:53 10° SSE daylight
22 Oct - 20:09:26 10° SSW 20:14:04 16° SSE 20:17:39 10° SE visible
22 Oct - 22:23:07 10° SW 22:28:52 75° SE 22:32:55 10° ENE night (unlit)
23 Oct - 07:25:03 10° NNW 07:34:16 26° NE 07:47:25 10° E daylight
23 Oct - 09:36:49 10° NW 09:51:20 73° NE 10:11:49 10° ESE daylight
23 Oct - 11:52:57 10° WNW 12:10:29 54° SSW 12:29:39 10° SE daylight
23 Oct - 14:17:01 10° WSW 14:31:39 24° SSW 14:44:21 10° SSE daylight
23 Oct - 16:49:49 10° SSW 16:54:13 12° S 16:58:06 10° S daylight
23 Oct - 19:09:55 10° SSW 19:14:23 13° SSE 19:18:00 10° SE visible
23 Oct - 21:23:52 10° SW 21:30:30 41° SSE 21:34:50 10° E visible
23 Oct - 23:40:11 10° W 23:43:25 19° NW 23:46:17 10° N night (unlit)
24 Oct - 06:28:36 10° N 06:34:23 16° NE 06:41:49 10° ENE daylight
24 Oct - 08:38:27 10° NW 08:50:52 55° NE 09:09:44 10° ESE daylight
24 Oct - 10:52:43 10° WNW 11:09:00 68° SW 11:29:26 10° SE daylight
24 Oct - 13:13:18 10° W 13:29:40 31° SSW 13:45:15 10° SSE daylight
24 Oct - 15:43:42 10° SW 15:52:25 15° SSW 15:59:48 10° SSE daylight
24 Oct - 18:09:22 10° SSW 18:14:07 13° S 18:18:04 10° SSE visible
24 Oct - 20:24:25 10° SSW 20:31:40 28° SSE 20:36:24 10° E visible
24 Oct - 22:40:03 10° WSW 22:45:25 43° NW 22:49:19 10° NE night (unlit)
25 Oct - 07:40:38 10° NNW 07:50:53 38° NE 08:06:42 10° E daylight
25 Oct - 09:53:20 10° WNW 10:07:52 85° SW 10:28:36 10° SE daylight
25 Oct - 12:11:06 10° W 12:27:45 40° SSW 12:45:39 10° SE daylight
25 Oct - 14:37:58 10° SW 14:50:14 19° SSW 15:00:52 10° SSE daylight
25 Oct - 17:07:15 10° SSW 17:13:11 13° S 17:18:08 10° SSE daylight
25 Oct - 19:24:37 10° SSW 19:32:19 22° SSE 19:37:33 10° ESE visible
25 Oct - 21:40:10 10° SW 21:47:21 89° NW 21:51:50 10° NE visible
26 Oct - 06:43:30 10° NNW 06:51:17 25° NE 07:02:39 10° E daylight
26 Oct - 08:54:38 10° NW 09:07:15 76° NE 09:27:04 10° ESE daylight
26 Oct - 11:10:11 10° WNW 11:26:02 50° SSW 11:45:32 10° SE daylight
26 Oct - 13:33:20 10° WSW 13:47:53 24° SSW 14:01:30 10° SSE daylight
26 Oct - 16:03:31 10° SSW 16:11:33 14° S 16:18:17 10° SSE daylight
26 Oct - 18:24:17 10° SSW 18:32:24 19° SSE 18:38:13 10° ESE visible
26 Oct - 20:40:14 10° SW 20:48:52 54° SSE 20:53:58 10° ENE visible
26 Oct - 22:58:08 10° W 23:01:48 18° NW 23:04:47 10° N night (unlit)
27 Oct - 05:47:42 10° N 05:51:53 14° NE 05:57:03 10° ENE daylight
27 Oct - 07:56:32 10° NW 08:07:13 56° NE 08:24:49 10° ESE daylight
27 Oct - 10:10:18 10° WNW 10:24:40 63° SSW 10:44:55 10° SE daylight
27 Oct - 12:30:10 10° WSW 12:45:35 30° SSW 13:01:44 10° SSE daylight
27 Oct - 14:58:46 10° SW 15:09:20 16° S 15:18:25 10° SSE daylight
27 Oct - 17:23:11 10° SSW 17:31:52 17° S 17:38:23 10° SE daylight
27 Oct - 19:40:07 10° SW 19:49:52 38° SSE 19:55:42 10° E visible
27 Oct - 21:57:16 10° WSW 22:03:47 40° NW 22:08:05 10° NNE visible
28 Oct - 06:58:59 10° NNW 07:07:43 37° NE 07:21:50 10° ESE daylight
28 Oct - 09:11:12 10° WNW 09:23:49 80° SW 09:43:45 10° SE daylight
28 Oct - 11:28:25 10° W 11:43:32 37° SSW 12:01:33 10° SE daylight
28 Oct - 13:53:59 10° SW 14:06:44 19° SSW 14:18:25 10° SSE daylight
28 Oct - 16:21:08 10° SSW 16:30:36 17° S 16:38:05 10° SE daylight
28 Oct - 18:39:40 10° SSW 18:50:18 30° SSE 18:57:00 10° E visible
28 Oct - 20:56:43 10° WSW 21:05:37 78° NW 21:10:45 10° NE visible
29 Oct - 06:02:07 10° N 06:08:36 23° NE 06:18:02 10° E daylight
29 Oct - 08:12:45 10° NW 08:23:34 79° NE 08:42:03 10° ESE daylight
29 Oct - 10:27:52 10° W 10:41:53 46° SSW 11:00:58 10° SE daylight
29 Oct - 12:50:07 10° WSW 13:04:04 23° SSW 13:18:11 10° SSE daylight
29 Oct - 15:18:03 10° SSW 15:28:37 17° S 15:37:25 10° SE daylight
29 Oct - 17:38:49 10° SSW 17:50:07 25° SSE 17:57:44 10° ESE daylight
29 Oct - 19:56:08 10° SW 20:06:59 67° SSE 20:13:00 10° ENE visible
29 Oct - 22:15:31 10° W 22:20:03 19° NW 22:23:30 10° N visible
30 Oct - 05:07:19 10° NNE 05:09:36 11° NE 05:12:12 10° NE visible
30 Oct - 07:14:52 10° NW 07:23:58 57° NE 07:39:50 10° ESE daylight
30 Oct - 09:28:15 10° WNW 09:40:44 58° SSW 09:59:59 10° SE daylight
30 Oct - 11:47:31 10° WSW 12:01:37 28° SSW 12:17:42 10° SSE daylight
30 Oct - 14:14:16 10° SW 14:26:02 18° S 14:36:32 10° SSE daylight
30 Oct - 16:37:27 10° SSW 16:49:16 22° SSE 16:57:50 10° ESE daylight
30 Oct - 18:55:24 10° SW 19:07:46 47° SSE 19:14:48 10° E visible
30 Oct - 21:13:58 10° WSW 21:21:58 39° NW 21:26:54 10° NNE visible
31 Oct - 06:17:30 10° NNW 06:24:54 36° NE 06:37:06 10° ESE daylight
31 Oct - 08:29:24 10° WNW 08:40:12 74° SW 08:58:38 10° SE daylight
31 Oct - 10:46:11 10° W 10:59:35 34° SSW 11:16:57 10° SE daylight
31 Oct - 13:10:29 10° SW 13:23:08 19° S 13:35:30 10° SSE daylight
31 Oct - 15:35:32 10° SSW 15:47:41 20° S 15:57:13 10° SE daylight
31 Oct - 17:54:29 10° SW 18:07:56 37° SSE 18:16:07 10° E visible
31 Oct - 20:12:45 10° WSW 20:23:37 71° NW 20:29:38 10° NE visible
